Kezdőlap
METAR-TAF:

METAR-TAF

Repülőterek :

Quentin Aanenson Field

Luverne, Minnesota, Amerikai Egyesült Államok

földrajzi szélesség: 43-37-16N, földrajzi hosszúság: 096-12-58W, magasság: 436 m

Jelenlegi meteorológiai megfigyelések

A jelentés 23 perccel ezelõtt készült, 16:35 UTC
Déli szél 14 kt széllökések: 19 kt
Hőmérséklet 28°C
Páratartalom 45%
Légköri nyomás 1016 hPa
Látótávolság: 16.1 km
Derült ég

METAR: KLYV 291635Z AUTO 19014G19KT 10SM CLR 28/15 A3000 RMK AO2

Idő: 11:58 (16:58 UTC)


TAF: hiányzik

Meteorológiai megfigyelések és előrejelzések több, mint 4000 repülőtéren (METAR és TAF jelentéseket).

A térképen piros és sárga pontok jelzik az elérhető meteorológiai állomásokat.

Mozgassa az egeret a pont fölött, hogy megjelenjen az állomás neve.

Azután kattintson az időjárási megfigyelések és előrejelzések megtekintéséhez.

A térkép megváltoztatása: kattintson a fekete keresztel jelölt zöld gombra ráközelítéshez, a vonallal jelölt zöld gombra távolításhoz, vagy a zöld nyilakra a szomszédos térképek eléréséhez.


METAR-TAF: